RAM263M GMMN-FGSL

Flight info

Callsign RAM263M
Flight time N/A
Altitude 33000
Route FOBAC UR722 MABAP DCT BULIS UR981 NY/N0454F350 UR981 TENTU DCT BEN DCT POT NAPAP1D
Aircraft B738/M-SDE2E3FGHIRWXY/LB1

Departure

Time N/A
Airport Mohammed V International Airport (GMMN)

Arrival

Time 2026-04-22 11:45
Airport Malabo International Airport (FGSL)
Time Latitude Longitude Altitude Speed Heading
2026-04-22 09:46 14.51834 1.37492 31936 ft 507 kts 144°
2026-04-22 09:46 14.48674 1.40040 31934 ft 509 kts 144°
2026-04-22 09:47 14.43014 1.44599 32194 ft 523 kts 144°
2026-04-22 09:47 14.40114 1.46935 32479 ft 526 kts 144°
2026-04-22 09:48 14.37215 1.49272 33035 ft 523 kts 144°
2026-04-22 09:48 14.34396 1.51547 33790 ft 517 kts 144°
2026-04-22 09:48 14.31566 1.53828 34691 ft 507 kts 145°
2026-04-22 09:48 14.28834 1.56029 35559 ft 498 kts 145°
2026-04-22 09:49 14.26112 1.58218 35895 ft 497 kts 145°
2026-04-22 09:49 14.23379 1.60413 35904 ft 496 kts 146°
2026-04-22 09:49 14.17985 1.64746 35913 ft 492 kts 145°
2026-04-22 09:50 14.12559 1.69100 35909 ft 490 kts 146°
2026-04-22 09:50 14.07188 1.73407 35910 ft 491 kts 146°
2026-04-22 09:51 14.01814 1.77714 35904 ft 487 kts 146°
2026-04-22 09:51 13.96460 1.82004 35901 ft 489 kts 145°
2026-04-22 09:52 13.91080 1.86313 35902 ft 490 kts 146°
2026-04-22 09:52 13.85703 1.90619 35901 ft 485 kts 146°
2026-04-22 09:53 13.80372 1.94884 35906 ft 488 kts 146°
2026-04-22 09:53 13.74981 1.99193 35908 ft 489 kts 145°
2026-04-22 09:54 13.69655 2.03450 35907 ft 488 kts 145°
2026-04-22 09:54 13.64279 2.07741 35905 ft 487 kts 145°
2026-04-22 09:55 13.58918 2.12020 35902 ft 485 kts 145°
2026-04-22 09:55 13.53602 2.16260 35902 ft 486 kts 145°
2026-04-22 09:56 13.48051 2.20136 35900 ft 478 kts 158°
2026-04-22 09:56 13.44943 2.21326 35905 ft 471 kts 169°
2026-04-22 09:56 13.41740 2.22062 35906 ft 470 kts 174°
2026-04-22 09:57 13.35289 2.23128 35902 ft 466 kts 176°
2026-04-22 09:57 13.28856 2.24089 35905 ft 468 kts 176°
2026-04-22 09:58 13.22381 2.25095 35903 ft 469 kts 176°
2026-04-22 09:58 13.15958 2.26139 35904 ft 467 kts 175°
2026-04-22 09:59 13.09513 2.27210 35901 ft 468 kts 175°
2026-04-22 09:59 13.03074 2.28289 35902 ft 468 kts 175°
2026-04-22 10:00 12.96683 2.29369 35900 ft 467 kts 175°
2026-04-22 10:00 12.90223 2.30462 35898 ft 466 kts 175°
2026-04-22 10:01 12.83814 2.31544 35898 ft 465 kts 175°
2026-04-22 10:01 12.77437 2.32617 35899 ft 465 kts 175°
2026-04-22 10:02 12.71069 2.33688 35898 ft 463 kts 175°
2026-04-22 10:02 12.64672 2.34765 35899 ft 463 kts 175°
2026-04-22 10:03 12.58295 2.35836 35889 ft 464 kts 175°
2026-04-22 10:03 12.51919 2.36907 35884 ft 462 kts 174°
2026-04-22 10:04 12.45602 2.37970 35887 ft 460 kts 174°
2026-04-22 10:04 12.39264 2.39036 35886 ft 463 kts 175°
2026-04-22 10:05 12.32883 2.40105 35892 ft 462 kts 174°
2026-04-22 10:05 12.26533 2.41174 35893 ft 462 kts 175°
2026-04-22 10:06 12.20246 2.42229 35895 ft 459 kts 175°
2026-04-22 10:06 12.13891 2.43289 35900 ft 459 kts 174°
2026-04-22 10:07 12.07558 2.44350 35901 ft 460 kts 174°
2026-04-22 10:07 12.01251 2.45410 35902 ft 457 kts 174°
2026-04-22 10:08 11.94944 2.46466 35905 ft 460 kts 174°
2026-04-22 10:08 11.88637 2.47523 35903 ft 460 kts 174°
2026-04-22 10:09 11.82348 2.48573 35904 ft 457 kts 174°
2026-04-22 10:09 11.76021 2.49629 35902 ft 458 kts 174°
2026-04-22 10:10 11.69747 2.50678 35904 ft 456 kts 174°
2026-04-22 10:10 11.63469 2.51729 35907 ft 458 kts 174°
2026-04-22 10:11 11.57154 2.52789 35907 ft 456 kts 173°
2026-04-22 10:11 11.50887 2.53840 35904 ft 456 kts 174°
2026-04-22 10:12 11.44596 2.54889 35905 ft 455 kts 173°
2026-04-22 10:12 11.38358 2.55927 35910 ft 457 kts 173°
2026-04-22 10:13 11.32058 2.56977 35907 ft 454 kts 173°
2026-04-22 10:13 11.25770 2.58024 35905 ft 457 kts 173°
2026-04-22 10:14 11.19485 2.59071 35903 ft 454 kts 173°
2026-04-22 10:14 11.13292 2.60103 35903 ft 453 kts 173°
2026-04-22 10:15 11.07002 2.61150 35901 ft 453 kts 174°
2026-04-22 10:15 11.00763 2.62185 35897 ft 454 kts 173°
2026-04-22 10:16 10.94523 2.63181 35896 ft 454 kts 174°
2026-04-22 10:16 10.88256 2.64134 35893 ft 452 kts 174°
2026-04-22 10:17 10.82046 2.65075 35892 ft 452 kts 174°
2026-04-22 10:17 10.75781 2.66028 35898 ft 453 kts 174°
2026-04-22 10:18 10.69566 2.66974 35900 ft 450 kts 174°
2026-04-22 10:18 10.63351 2.67926 35903 ft 449 kts 174°
2026-04-22 10:19 10.57182 2.68860 35907 ft 450 kts 174°
2026-04-22 10:19 10.50985 2.69802 35909 ft 448 kts 174°
2026-04-22 10:20 10.44783 2.70747 35912 ft 448 kts 174°
2026-04-22 10:20 10.38639 2.71686 35914 ft 446 kts 174°
2026-04-22 10:21 10.32478 2.72631 35914 ft 447 kts 174°
2026-04-22 10:21 10.26290 2.73574 35918 ft 444 kts 174°
2026-04-22 10:22 10.20139 2.74509 35921 ft 448 kts 174°
2026-04-22 10:22 10.13959 2.75445 35922 ft 448 kts 174°
2026-04-22 10:23 10.07799 2.76383 35927 ft 447 kts 174°
2026-04-22 10:23 10.01616 2.77327 35930 ft 448 kts 174°
2026-04-22 10:24 9.95453 2.78263 35933 ft 445 kts 173°
2026-04-22 10:24 9.89300 2.79198 35933 ft 445 kts 174°
2026-04-22 10:25 9.83192 2.80128 35935 ft 444 kts 174°
2026-04-22 10:25 9.77042 2.81062 35932 ft 445 kts 174°
2026-04-22 10:26 9.70929 2.81989 35933 ft 444 kts 173°
2026-04-22 10:26 9.64774 2.82917 35933 ft 444 kts 173°
2026-04-22 10:27 9.58641 2.83843 35930 ft 444 kts 173°
2026-04-22 10:27 9.52563 2.84771 35931 ft 444 kts 173°
2026-04-22 10:28 9.46401 2.85713 35930 ft 444 kts 173°
2026-04-22 10:28 9.40307 2.86799 35926 ft 444 kts 171°
2026-04-22 10:29 9.34253 2.87987 35923 ft 444 kts 171°
2026-04-22 10:29 9.28174 2.89182 35925 ft 444 kts 171°
2026-04-22 10:30 9.22107 2.90359 35924 ft 443 kts 171°
2026-04-22 10:30 9.16068 2.91517 35929 ft 441 kts 171°
2026-04-22 10:31 9.10028 2.92772 35930 ft 444 kts 165°
2026-04-22 10:31 9.04466 2.95507 35935 ft 449 kts 144°
2026-04-22 10:32 8.99728 2.99677 35942 ft 449 kts 137°
2026-04-22 10:32 8.95207 3.04040 35940 ft 448 kts 137°
2026-04-22 10:33 8.90704 3.08409 35936 ft 449 kts 137°
2026-04-22 10:33 8.86214 3.12727 35938 ft 447 kts 138°
2026-04-22 10:34 8.81659 3.17072 35937 ft 446 kts 138°
2026-04-22 10:34 8.77159 3.21351 35938 ft 446 kts 138°
2026-04-22 10:35 8.72621 3.25662 35940 ft 446 kts 138°
2026-04-22 10:35 8.68129 3.29932 35938 ft 445 kts 138°
2026-04-22 10:36 8.63616 3.34223 35940 ft 444 kts 138°
2026-04-22 10:36 8.59098 3.38515 35938 ft 446 kts 138°
2026-04-22 10:37 8.52326 3.44934 35932 ft 444 kts 138°
2026-04-22 10:38 8.47831 3.49202 35928 ft 443 kts 138°
2026-04-22 10:38 8.43346 3.53460 35922 ft 443 kts 138°
2026-04-22 10:39 8.38854 3.57713 35914 ft 442 kts 138°
2026-04-22 10:39 8.34353 3.61975 35914 ft 444 kts 137°
2026-04-22 10:40 8.29855 3.66233 35911 ft 444 kts 138°
2026-04-22 10:40 8.25339 3.70508 35911 ft 443 kts 138°
2026-04-22 10:41 8.20839 3.74767 35915 ft 444 kts 138°
2026-04-22 10:41 8.16380 3.78984 35910 ft 441 kts 138°
2026-04-22 10:42 8.11901 3.83219 35915 ft 441 kts 138°
2026-04-22 10:42 8.07418 3.87460 35913 ft 442 kts 138°
2026-04-22 10:43 8.02934 3.91697 35916 ft 441 kts 138°
2026-04-22 10:43 7.98443 3.95937 35921 ft 443 kts 138°
2026-04-22 10:44 7.93960 4.00172 35918 ft 441 kts 138°
2026-04-22 10:44 7.89473 4.04413 35919 ft 442 kts 137°
2026-04-22 10:45 7.84958 4.08675 35922 ft 441 kts 138°
2026-04-22 10:45 7.80481 4.12898 35922 ft 442 kts 138°
2026-04-22 10:46 7.75999 4.17125 35920 ft 442 kts 138°
2026-04-22 10:46 7.71507 4.21361 35918 ft 443 kts 138°
2026-04-22 10:47 7.67001 4.25613 35917 ft 443 kts 138°
2026-04-22 10:47 7.62501 4.29847 35915 ft 442 kts 138°
2026-04-22 10:48 7.57998 4.34093 35913 ft 444 kts 138°
2026-04-22 10:48 7.53503 4.38331 35911 ft 442 kts 137°
2026-04-22 10:49 7.48995 4.42575 35909 ft 443 kts 137°
2026-04-22 10:49 7.44492 4.46816 35909 ft 442 kts 138°
2026-04-22 10:50 7.40020 4.51026 35906 ft 443 kts 138°
2026-04-22 10:50 7.35516 4.55271 35901 ft 442 kts 137°
2026-04-22 10:51 7.31027 4.59500 35902 ft 441 kts 137°
2026-04-22 10:51 7.26538 4.63717 35901 ft 441 kts 137°
2026-04-22 10:52 7.22072 4.67917 35900 ft 441 kts 137°
2026-04-22 10:52 7.17565 4.72152 35891 ft 442 kts 137°
2026-04-22 10:53 7.13108 4.76348 35887 ft 441 kts 137°
2026-04-22 10:53 7.08611 4.80564 35887 ft 442 kts 137°
2026-04-22 10:54 7.04107 4.84786 35882 ft 441 kts 137°
2026-04-22 10:54 6.99631 4.88990 35880 ft 441 kts 137°
2026-04-22 10:55 6.95127 4.93217 35881 ft 441 kts 137°
2026-04-22 10:55 6.90655 4.97414 35882 ft 440 kts 137°
2026-04-22 10:56 6.86187 5.01604 35878 ft 441 kts 137°
2026-04-22 10:56 6.81698 5.05814 35876 ft 440 kts 137°
2026-04-22 10:57 6.77209 5.10021 35872 ft 439 kts 137°
2026-04-22 10:57 6.72746 5.14204 35866 ft 440 kts 137°
2026-04-22 10:58 6.68259 5.18408 35862 ft 439 kts 137°
2026-04-22 10:58 6.63800 5.22585 35862 ft 440 kts 137°
2026-04-22 10:59 6.59322 5.26781 35863 ft 439 kts 137°
2026-04-22 10:59 6.54875 5.30943 35860 ft 437 kts 137°
2026-04-22 11:00 6.50403 5.35129 35858 ft 437 kts 137°
2026-04-22 11:00 6.45958 5.39291 35856 ft 438 kts 137°
2026-04-22 11:01 6.41504 5.43462 35855 ft 438 kts 138°
2026-04-22 11:01 6.37050 5.47626 35859 ft 438 kts 138°
2026-04-22 11:02 6.32566 5.51819 35862 ft 439 kts 138°
2026-04-22 11:02 6.28118 5.56000 35861 ft 438 kts 136°
2026-04-22 11:03 6.23939 5.60455 35861 ft 439 kts 132°
2026-04-22 11:03 6.19912 5.65088 35865 ft 440 kts 131°
2026-04-22 11:04 6.15926 5.69681 35864 ft 438 kts 132°
2026-04-22 11:04 6.11878 5.74295 35860 ft 438 kts 132°
2026-04-22 11:05 6.07822 5.78890 35855 ft 440 kts 132°
2026-04-22 11:05 6.03752 5.83483 35856 ft 440 kts 133°
2026-04-22 11:06 5.99702 5.88049 35859 ft 441 kts 133°
2026-04-22 11:06 5.95627 5.92636 35857 ft 439 kts 132°
2026-04-22 11:07 5.91565 5.97210 35857 ft 440 kts 132°
2026-04-22 11:07 5.87473 6.01817 35856 ft 439 kts 132°
2026-04-22 11:08 5.83415 6.06388 35857 ft 439 kts 132°
2026-04-22 11:08 5.79351 6.10963 35856 ft 439 kts 132°
2026-04-22 11:09 5.75282 6.15539 35858 ft 438 kts 132°
2026-04-22 11:09 5.71256 6.20068 35857 ft 437 kts 132°
2026-04-22 11:10 5.67196 6.24639 35852 ft 436 kts 132°
2026-04-22 11:10 5.63154 6.29180 35855 ft 438 kts 132°
2026-04-22 11:11 5.59092 6.33742 35860 ft 437 kts 132°
2026-04-22 11:11 5.55068 6.38262 35859 ft 437 kts 132°
2026-04-22 11:12 5.51011 6.42826 35857 ft 437 kts 132°
2026-04-22 11:12 5.46962 6.47379 35857 ft 436 kts 132°
2026-04-22 11:13 5.42925 6.51915 35856 ft 436 kts 132°
2026-04-22 11:13 5.38890 6.56449 35861 ft 435 kts 131°
2026-04-22 11:14 5.34857 6.60977 35863 ft 438 kts 131°
2026-04-22 11:14 5.30800 6.65527 35870 ft 437 kts 132°
2026-04-22 11:15 5.26752 6.70064 35880 ft 435 kts 131°
2026-04-22 11:15 5.22690 6.74621 35888 ft 437 kts 132°
2026-04-22 11:16 5.18646 6.79156 35889 ft 437 kts 131°
2026-04-22 11:16 5.14607 6.83684 35886 ft 436 kts 131°
2026-04-22 11:17 5.10543 6.88238 35882 ft 436 kts 131°
2026-04-22 11:17 5.06527 6.92740 35877 ft 436 kts 131°
2026-04-22 11:18 5.02541 6.97327 35872 ft 437 kts 128°
2026-04-22 11:18 4.98907 7.02253 35860 ft 436 kts 125°
2026-04-22 11:19 4.95426 7.07238 35859 ft 436 kts 125°
2026-04-22 11:19 4.91914 7.12223 35864 ft 437 kts 125°
2026-04-22 11:20 4.88390 7.17173 35872 ft 436 kts 126°
2026-04-22 11:20 4.84868 7.22086 35879 ft 435 kts 126°
2026-04-22 11:21 4.81362 7.26965 35613 ft 425 kts 126°
2026-04-22 11:21 4.79639 7.29359 35171 ft 419 kts 126°
2026-04-22 11:21 4.77941 7.31720 34685 ft 415 kts 126°
2026-04-22 11:21 4.76257 7.34062 34192 ft 411 kts 126°
2026-04-22 11:22 4.74613 7.36348 33714 ft 408 kts 126°
2026-04-22 11:22 4.72940 7.38671 33227 ft 410 kts 126°
2026-04-22 11:22 4.71260 7.41005 32730 ft 413 kts 126°
2026-04-22 11:22 4.69590 7.43324 32263 ft 411 kts 125°
2026-04-22 11:23 4.67938 7.45620 31782 ft 408 kts 125°
2026-04-22 11:23 4.66274 7.47932 31290 ft 406 kts 124°
2026-04-22 11:23 4.64635 7.50210 30805 ft 404 kts 124°
2026-04-22 11:23 4.63001 7.52480 30315 ft 402 kts 123°
2026-04-22 11:24 4.61365 7.54752 29829 ft 403 kts 123°
2026-04-22 11:24 4.59717 7.57041 29334 ft 410 kts 123°
2026-04-22 11:24 4.58047 7.59362 28832 ft 412 kts 123°
2026-04-22 11:24 4.56363 7.61699 28324 ft 410 kts 122°
2026-04-22 11:25 4.54720 7.63981 27834 ft 409 kts 122°
2026-04-22 11:25 4.53053 7.66297 27327 ft 407 kts 122°
2026-04-22 11:25 4.51393 7.68602 26821 ft 406 kts 123°
2026-04-22 11:25 4.49744 7.70888 26321 ft 404 kts 122°
2026-04-22 11:26 4.48113 7.73151 25824 ft 402 kts 123°
2026-04-22 11:26 4.46490 7.75404 25330 ft 400 kts 123°
2026-04-22 11:26 4.44855 7.77672 24834 ft 398 kts 123°
2026-04-22 11:26 4.43239 7.79914 24343 ft 396 kts 123°
2026-04-22 11:27 4.41635 7.82139 23854 ft 394 kts 123°
2026-04-22 11:27 4.40044 7.84345 23371 ft 392 kts 123°
2026-04-22 11:27 4.38438 7.86571 22887 ft 390 kts 123°
2026-04-22 11:27 4.36870 7.88745 22411 ft 387 kts 123°
2026-04-22 11:28 4.35284 7.90945 21943 ft 385 kts 123°
2026-04-22 11:28 4.33729 7.93101 21480 ft 383 kts 123°
2026-04-22 11:28 4.32172 7.95260 21009 ft 381 kts 123°
2026-04-22 11:28 4.30628 7.97400 20537 ft 379 kts 123°
2026-04-22 11:29 4.29094 7.99528 20066 ft 377 kts 124°
2026-04-22 11:29 4.27573 8.01638 19601 ft 374 kts 124°
2026-04-22 11:29 4.26047 8.03754 19129 ft 371 kts 124°
2026-04-22 11:29 4.24553 8.05827 18669 ft 368 kts 124°
2026-04-22 11:30 4.23070 8.07886 18212 ft 364 kts 124°
2026-04-22 11:30 4.21596 8.09933 17761 ft 360 kts 124°
2026-04-22 11:30 4.20140 8.11953 17315 ft 357 kts 124°
2026-04-22 11:30 4.18692 8.13961 16864 ft 353 kts 124°
2026-04-22 11:31 4.17266 8.15937 16428 ft 349 kts 124°
2026-04-22 11:31 4.15842 8.17912 15983 ft 345 kts 124°
2026-04-22 11:31 4.14459 8.19830 15564 ft 341 kts 123°
2026-04-22 11:31 4.13074 8.21749 15137 ft 338 kts 123°
2026-04-22 11:32 4.11700 8.23653 14709 ft 334 kts 123°
2026-04-22 11:32 4.10337 8.25540 14288 ft 331 kts 123°
2026-04-22 11:32 4.09008 8.27381 13881 ft 327 kts 123°
2026-04-22 11:32 4.07686 8.29213 13475 ft 324 kts 122°
2026-04-22 11:33 4.06360 8.31050 13063 ft 321 kts 122°
2026-04-22 11:33 4.05061 8.32851 12656 ft 318 kts 122°
2026-04-22 11:33 4.03770 8.34639 12260 ft 314 kts 122°
2026-04-22 11:33 4.02498 8.36404 11864 ft 311 kts 121°
2026-04-22 11:34 4.01436 8.38236 11475 ft 305 kts 110°
2026-04-22 11:34 4.00917 8.40271 11094 ft 297 kts 95°
2026-04-22 11:34 4.00750 8.42283 10731 ft 293 kts 91°
2026-04-22 11:34 4.00641 8.44329 10357 ft 290 kts 91°
2026-04-22 11:35 4.00510 8.46321 9994 ft 288 kts 92°
2026-04-22 11:35 4.00343 8.48308 9702 ft 283 kts 92°
2026-04-22 11:35 4.00160 8.50261 9400 ft 279 kts 92°
2026-04-22 11:35 3.99975 8.52166 9052 ft 277 kts 93°
2026-04-22 11:36 3.99789 8.54086 8703 ft 275 kts 93°
2026-04-22 11:36 3.99608 8.55957 8379 ft 273 kts 93°
2026-04-22 11:36 3.99527 8.56796 8222 ft 271 kts 93°
2026-04-22 11:36 3.99344 8.58682 7890 ft 267 kts 93°
2026-04-22 11:37 3.99167 8.60520 7555 ft 266 kts 93°
2026-04-22 11:37 3.98990 8.62351 7226 ft 264 kts 93°
2026-04-22 11:37 3.98815 8.64174 6901 ft 264 kts 94°
2026-04-22 11:37 3.98640 8.66007 6569 ft 262 kts 94°
2026-04-22 11:38 3.98468 8.67818 6237 ft 261 kts 94°
2026-04-22 11:38 3.98296 8.69604 5915 ft 255 kts 94°
2026-04-22 11:38 3.97964 8.73051 5309 ft 242 kts 94°
2026-04-22 11:39 3.97808 8.74695 5012 ft 236 kts 94°
2026-04-22 11:39 3.97653 8.76307 4715 ft 231 kts 94°
2026-04-22 11:39 3.97496 8.77896 4432 ft 226 kts 95°
2026-04-22 11:39 3.97140 8.79419 4143 ft 226 kts 114°
2026-04-22 11:40 3.96214 8.80670 3929 ft 222 kts 133°
2026-04-22 11:40 3.95124 8.81751 3799 ft 215 kts 134°
2026-04-22 11:40 3.94091 8.82820 3640 ft 212 kts 133°
2026-04-22 11:40 3.92954 8.83761 3463 ft 213 kts 152°
2026-04-22 11:41 3.91521 8.84071 3280 ft 214 kts 185°
2026-04-22 11:41 3.90106 8.83640 3042 ft 211 kts 212°
2026-04-22 11:41 3.88948 8.82765 2801 ft 207 kts 224°
2026-04-22 11:41 3.87867 8.81802 2590 ft 205 kts 224°
2026-04-22 11:42 3.86797 8.80873 2390 ft 204 kts 223°
2026-04-22 11:42 3.85726 8.79930 2197 ft 203 kts 224°
2026-04-22 11:42 3.84691 8.78994 2074 ft 195 kts 224°
2026-04-22 11:42 3.84051 8.78426 1956 ft 191 kts 224°
2026-04-22 11:43 3.83223 8.77702 1767 ft 188 kts 224°
2026-04-22 11:43 3.82255 8.76835 1524 ft 178 kts 225°
2026-04-22 11:43 3.81368 8.76039 1336 ft 163 kts 223°
2026-04-22 11:43 3.80527 8.75319 1088 ft 154 kts 222°
2026-04-22 11:44 3.79748 8.74597 908 ft 153 kts 225°
2026-04-22 11:44 3.78938 8.73886 709 ft 151 kts 221°
2026-04-22 11:44 3.78140 8.73178 505 ft 150 kts 226°
2026-04-22 11:44 3.77353 8.72496 345 ft 148 kts 222°
2026-04-22 11:45 3.76574 8.71815 134 ft 149 kts 224°
2026-04-22 11:45 3.75856 8.71160 92 ft 118 kts 222°
2026-04-22 11:45 3.75393 8.70749 106 ft 62 kts 221°
2026-04-22 11:45 3.75131 8.70518 107 ft 45 kts 221°
2026-04-22 11:46 3.74960 8.70402 105 ft 12 kts 162°
2026-04-22 11:46 3.74908 8.70456 109 ft 6 kts 130°
2026-04-22 11:46 3.74893 8.70472 112 ft 1 kts 132°
2026-04-22 11:46 3.74874 8.70492 116 ft 6 kts 133°
2026-04-22 11:47 3.74831 8.70542 123 ft 10 kts 130°
2026-04-22 11:47 3.74836 8.70600 128 ft 12 kts 42°
2026-04-22 11:47 3.74871 8.70669 131 ft 9 kts 125°
2026-04-22 11:47 3.74855 8.70688 135 ft 0 kts 131°